User: anonymous   Login
Location: Unspecified
(0.0000°N, 0.0000°E)
Time: 01:54:51
(UTC+00:00)
Language:

OBJECT C - Orbit

View from above orbital plane
View from above orbital plane
View from above satellite
View from above satellite

Ground track
Ground track

The orbit is defined by the following mean orbital elements,

1 68131U          26145.43325494 +.00000000 +00000-0 +84062-4 0 00008
2 68131  49.9980 137.8313 0000205 355.1602   4.9268 13.29329729    01
Epoch (UTC): 25 May 2026 10:23:53
Eccentricity: 0.0000205
inclination: 49.9980°
perigee height: 1149 km
apogee height: 1149 km
right ascension of ascending node: 137.8313°
argument of perigee: 355.1602°
revolutions per day: 13.29329729
mean anomaly at epoch: 4.9268°

The dashed part of the orbit path shows where the satellite is in the earth's shadow,  

DLR